This demonstration page uses our WeatherBlox Daily Observations layout. Learn more.

Left ArrowRight Arrow

Hourly Observations for January 20, 2022

Temp ( °F °C ) Dew Point ( °F °C ) Humidity (%) Winds ( mph kmh ) Pressure ( in mb ) Visibility ( mi km ) Precip ( " mm )
12:53 am 00:53 Mostly Cloudy 33 0.6 13 -10.6 43 43 NNE 8 13 30.30 1026 10 16 0.00 0.00
1:53 am 01:53 Clear 32 0 12 -11.1 43 43 N 8 13 30.31 1027 10 16 0.00 0.00
2:53 am 02:53 Clear 31 -0.6 10 -12.2 42 42 NNE 10 17 30.34 1027 10 16 0.00 0.00
3:53 am 03:53 Clear 29 -1.7 9 -12.8 43 43 NNE 7 11 30.35 1028 10 16 0.00 0.00
4:42 am 04:42 Mostly Cloudy 31 -0.6 9 -12.8 40 40 NE 9 15 30.49 1033 10 16 0.00 0.00
4:53 am 04:53 Cloudy 31 -0.6 9 -12.8 40 40 NE 14 22 30.37 1028 10 16 0.00 0.00
5:17 am 05:17 Partly Cloudy 30 -1.1 8 -13.3 39 39 NE 13 20 30.52 1033 10 16 0.00 0.00
5:53 am 05:53 Cloudy 30 -1.1 8 -13.3 39 39 NE 12 19 30.39 1029 10 16 0.00 0.00
6:39 am 06:39 Cloudy 29 -1.7 6 -14.4 38 38 NNE 14 22 30.55 1034 10 16 0.00 0.00
6:53 am 06:53 Mostly Cloudy 29 -1.7 5 -15 36 36 NNE 12 19 30.43 1030 10 16 0.00 0.00
7:53 am 07:53 Cloudy 28 -2.2 5 -15 37 37 NNE 12 19 30.44 1031 10 16 0.00 0.00
8:53 am 08:53 Cloudy 29 -1.7 5 -15 36 36 NNE 10 17 30.47 1032 10 16 0.00 0.00
9:03 am 09:03 Cloudy 29 -1.7 5 -15 36 36 NNE 14 22 30.60 1036 10 16 0.00 0.00
9:53 am 09:53 Cloudy 30 -1.1 4 -15.6 33 33 NNE 12 19 30.49 1033 10 16 0.00 0.00
10:53 am 10:53 Cloudy 30 -1.1 0 -17.8 27 27 NNE 10 17 30.52 1034 10 16 0.00 0.00
11:53 am 11:53 Cloudy 31 -0.6 4 -15.6 31 31 N 13 20 30.51 1033 10 16 0.00 0.00
12:53 pm 12:53 Cloudy 32 0 8 -13.3 36 36 NNE 9 15 30.47 1032 10 16 0.00 0.00
1:53 pm 13:53 Cloudy 32 0 8 -13.3 36 36 N 7 11 30.44 1031 10 16 0.00 0.00
2:53 pm 14:53 Mostly Cloudy 34 1.1 9 -12.8 35 35 N 6 9 30.40 1030 10 16 0.00 0.00
3:53 pm 15:53 Mostly Cloudy 35 1.7 9 -12.8 34 34 ENE 5 7 30.40 1030 10 16 0.00 0.00
4:53 pm 16:53 Cloudy 35 1.7 8 -13.3 32 32 N 9 15 30.39 1029 10 16 0.00 0.00
5:53 pm 17:53 Cloudy 34 1.1 7 -13.9 32 32 NNE 7 11 30.39 1029 10 16 0.00 0.00
6:53 pm 18:53 Cloudy 33 0.6 5 -15 30 30 NE 7 11 30.41 1030 10 16 0.00 0.00
7:53 pm 19:53 Cloudy 32 0 3 -16.1 29 29 E 8 13 30.42 1030 10 16 0.00 0.00
8:53 pm 20:53 Cloudy 32 0 1 -17.2 26 26 E 7 11 30.42 1030 10 16 0.00 0.00
9:53 pm 21:53 Cloudy 32 0 -2 -18.9 23 23 SE 7 11 30.42 1030 10 16 0.00 0.00
10:53 pm 22:53 Cloudy 31 -0.6 0 -17.8 26 26 SSE 9 15 30.41 1030 10 16 0.00 0.00
11:53 pm 23:53 Mostly Cloudy 29 -1.7 -2 -18.9 26 26 SE 8 13 30.39 1029 10 16 0.00 0.00

Powered by AerisWeather